Time,TemperatureF,DewpointF,PressureIn,WindDirection,WindDirectionDegrees,WindSpeedMPH,WindSpeedGustMPH,Humidity,HourlyPrecipIn,Conditions,Clouds,dailyrainin,SoftwareType,DateUTC
2013-02-12 00:10:00,26.6,21.0,29.75,NW,317,17.0,29.0,79,0.00,,,0.00,weatherlink.com 1.10,2013-02-12 05:10:00,
2013-02-12 00:25:00,26.3,21.0,29.75,NNW,330,14.0,28.0,79,0.00,,,0.00,weatherlink.com 1.10,2013-02-12 05:25:00,
2013-02-12 00:40:00,26.5,21.0,29.76,NNW,329,13.0,31.0,79,0.00,,,0.00,weatherlink.com 1.10,2013-02-12 05:40:00,
2013-02-12 00:55:00,26.4,20.0,29.77,NNW,331,17.0,24.0,77,0.00,,,0.00,weatherlink.com 1.10,2013-02-12 05:55:00,
2013-02-12 01:10:00,26.3,21.0,29.77,WNW,293,14.0,27.0,79,0.00,,,0.00,weatherlink.com 1.10,2013-02-12 06:10:00,
2013-02-12 01:25:00,26.3,20.0,29.77,NW,322,13.0,22.0,78,0.00,,,0.00,weatherlink.com 1.10,2013-02-12 06:25:00,
2013-02-12 01:40:00,26.5,21.0,29.78,NNW,348,16.0,23.0,78,0.00,,,0.00,weatherlink.com 1.10,2013-02-12 06:40:00,
2013-02-12 01:55:00,26.5,21.0,29.78,NW,310,15.0,25.0,79,0.00,,,0.00,weatherlink.com 1.10,2013-02-12 06:55:00,
2013-02-12 02:10:00,26.3,21.0,29.79,NW,309,12.0,23.0,80,0.00,,,0.00,weatherlink.com 1.10,2013-02-12 07:10:00,
2013-02-12 02:25:00,26.2,21.0,29.79,NNW,336,10.0,21.0,81,0.00,,,0.00,weatherlink.com 1.10,2013-02-12 07:25:00,
2013-02-12 02:41:00,26.3,21.0,29.80,WNW,299,12.0,20.0,80,0.00,,,0.00,weatherlink.com 1.10,2013-02-12 07:41:00,
2013-02-12 02:55:00,26.3,21.0,29.80,NW,306,18.0,24.0,79,0.00,,,0.00,weatherlink.com 1.10,2013-02-12 07:55:00,
2013-02-12 03:10:00,26.3,21.0,29.81,WNW,303,13.0,23.0,79,0.00,,,0.00,weatherlink.com 1.10,2013-02-12 08:10:00,
2013-02-12 03:25:00,26.4,21.0,29.82,NW,304,10.0,20.0,79,0.00,,,0.00,weatherlink.com 1.10,2013-02-12 08:25:00,
2013-02-12 03:40:00,26.3,21.0,29.82,WNW,297,17.0,23.0,81,0.00,,,0.00,weatherlink.com 1.10,2013-02-12 08:40:00,
2013-02-12 03:55:00,26.3,21.0,29.82,WNW,296,14.0,25.0,81,0.00,,,0.00,weatherlink.com 1.10,2013-02-12 08:55:00,
2013-02-12 04:11:00,26.2,21.0,29.82,WNW,301,12.0,23.0,82,0.00,,,0.00,weatherlink.com 1.10,2013-02-12 09:11:00,
2013-02-12 04:26:00,26.4,21.0,29.82,NW,310,12.0,22.0,80,0.00,,,0.00,weatherlink.com 1.10,2013-02-12 09:26:00,
2013-02-12 04:41:00,26.5,21.0,29.82,NW,311,10.0,21.0,80,0.00,,,0.00,weatherlink.com 1.10,2013-02-12 09:41:00,
2013-02-12 04:56:00,26.4,21.0,29.83,NNW,336,14.0,21.0,81,0.00,,,0.00,weatherlink.com 1.10,2013-02-12 09:56:00,
2013-02-12 05:11:00,26.5,21.0,29.83,NNW,336,11.0,19.0,81,0.00,,,0.00,weatherlink.com 1.10,2013-02-12 10:11:00,
2013-02-12 05:26:00,26.6,21.0,29.84,NW,326,16.0,19.0,80,0.00,,,0.00,weatherlink.com 1.10,2013-02-12 10:26:00,
2013-02-12 05:41:00,26.6,22.0,29.85,NW,312,11.0,21.0,81,0.00,,,0.00,weatherlink.com 1.10,2013-02-12 10:41:00,
2013-02-12 05:56:00,26.8,22.0,29.85,NW,321,9.0,22.0,81,0.00,,,0.00,weatherlink.com 1.10,2013-02-12 10:56:00,
2013-02-12 06:11:00,26.9,22.0,29.86,NW,316,17.0,22.0,81,0.00,,,0.00,weatherlink.com 1.10,2013-02-12 11:11:00,
2013-02-12 06:26:00,26.9,22.0,29.86,WNW,286,18.0,25.0,81,0.00,,,0.00,weatherlink.com 1.10,2013-02-12 11:26:00,
2013-02-12 06:41:00,26.9,22.0,29.86,WNW,299,12.0,25.0,82,0.00,,,0.00,weatherlink.com 1.10,2013-02-12 11:41:00,
2013-02-12 06:56:00,27.0,22.0,29.87,WNW,302,17.0,20.0,82,0.00,,,0.00,weatherlink.com 1.10,2013-02-12 11:56:00,
2013-02-12 07:11:00,27.0,23.0,29.87,WNW,288,13.0,23.0,83,0.00,,,0.00,weatherlink.com 1.10,2013-02-12 12:11:00,
2013-02-12 07:26:00,26.9,23.0,29.88,WNW,297,15.0,24.0,85,0.00,,,0.00,weatherlink.com 1.10,2013-02-12 12:26:00,
2013-02-12 07:41:00,26.9,23.0,29.89,WNW,288,12.0,23.0,86,0.00,,,0.00,weatherlink.com 1.10,2013-02-12 12:41:00,
2013-02-12 07:56:00,26.9,23.0,29.89,WNW,298,14.0,22.0,86,0.00,,,0.00,weatherlink.com 1.10,2013-02-12 12:56:00,
2013-02-12 08:11:00,27.0,23.0,29.89,WNW,291,15.0,25.0,85,0.00,,,0.00,weatherlink.com 1.10,2013-02-12 13:11:00,
2013-02-12 08:26:00,27.0,23.0,29.90,WNW,296,14.0,23.0,84,0.00,,,0.00,weatherlink.com 1.10,2013-02-12 13:26:00,
2013-02-12 08:41:00,27.1,23.0,29.90,WNW,294,15.0,22.0,83,0.00,,,0.00,weatherlink.com 1.10,2013-02-12 13:41:00,
2013-02-12 08:56:00,27.1,22.0,29.91,WNW,290,15.0,22.0,81,0.00,,,0.00,weatherlink.com 1.10,2013-02-12 13:56:00,
2013-02-12 09:11:00,27.0,22.0,29.91,NW,310,17.0,25.0,81,0.00,,,0.00,weatherlink.com 1.10,2013-02-12 14:11:00,
2013-02-12 09:26:00,26.6,22.0,29.92,NW,320,21.0,24.0,84,0.00,,,0.00,weatherlink.com 1.10,2013-02-12 14:26:00,
2013-02-12 09:41:00,26.6,22.0,29.92,WNW,293,14.0,21.0,82,0.00,,,0.00,weatherlink.com 1.10,2013-02-12 14:41:00,
2013-02-12 09:56:00,26.9,21.0,29.92,NW,315,14.0,20.0,79,0.00,,,0.00,weatherlink.com 1.10,2013-02-12 14:56:00,
2013-02-12 10:11:00,26.9,21.0,29.92,NW,310,17.0,19.0,78,0.00,,,0.00,weatherlink.com 1.10,2013-02-12 15:11:00,
2013-02-12 10:26:00,27.1,21.0,29.92,NW,315,17.0,21.0,77,0.00,,,0.00,weatherlink.com 1.10,2013-02-12 15:26:00,
2013-02-12 10:41:00,27.2,21.0,29.92,NNW,337,10.0,18.0,76,0.00,,,0.00,weatherlink.com 1.10,2013-02-12 15:41:00,
2013-02-12 10:56:00,27.0,21.0,29.92,NW,307,11.0,17.0,78,0.00,,,0.00,weatherlink.com 1.10,2013-02-12 15:56:00,
2013-02-12 11:11:00,26.8,21.0,29.92,WNW,296,12.0,16.0,79,0.00,,,0.00,weatherlink.com 1.10,2013-02-12 16:11:00,
2013-02-12 11:26:00,26.5,21.0,29.92,NW,321,6.0,15.0,81,0.00,,,0.00,weatherlink.com 1.10,2013-02-12 16:26:00,
2013-02-12 11:41:00,26.5,22.0,29.92,NW,311,11.0,14.0,83,0.00,,,0.00,weatherlink.com 1.10,2013-02-12 16:41:00,
2013-02-12 11:56:00,26.9,23.0,29.92,NW,307,13.0,14.0,86,0.00,,,0.00,weatherlink.com 1.10,2013-02-12 16:56:00,
2013-02-12 12:11:00,27.0,23.0,29.92,NW,309,15.0,18.0,84,0.00,,,0.00,weatherlink.com 1.10,2013-02-12 17:11:00,
2013-02-12 12:26:00,27.0,22.0,29.91,NW,304,15.0,17.0,82,0.00,,,0.00,weatherlink.com 1.10,2013-02-12 17:26:00,
2013-02-12 12:41:00,27.0,22.0,29.91,WNW,295,15.0,18.0,82,0.00,,,0.00,weatherlink.com 1.10,2013-02-12 17:41:00,
2013-02-12 12:56:00,26.8,22.0,29.90,WNW,285,13.0,18.0,82,0.00,,,0.00,weatherlink.com 1.10,2013-02-12 17:56:00,
2013-02-12 13:11:00,27.0,22.0,29.90,West,278,12.0,18.0,80,0.00,,,0.00,weatherlink.com 1.10,2013-02-12 18:11:00,
2013-02-12 13:26:00,26.9,22.0,29.89,WNW,290,12.0,17.0,81,0.00,,,0.00,weatherlink.com 1.10,2013-02-12 18:26:00,
2013-02-12 13:41:00,26.5,22.0,29.89,WNW,295,10.0,17.0,84,0.00,,,0.00,weatherlink.com 1.10,2013-02-12 18:41:00,
2013-02-12 13:56:00,26.7,23.0,29.88,WNW,302,11.0,13.0,86,0.00,,,0.00,weatherlink.com 1.10,2013-02-12 18:56:00,
2013-02-12 14:11:00,26.8,23.0,29.87,West,263,10.0,14.0,84,0.00,,,0.00,weatherlink.com 1.10,2013-02-12 19:11:00,
2013-02-12 14:26:00,26.7,22.0,29.87,West,275,12.0,15.0,83,0.00,,,0.00,weatherlink.com 1.10,2013-02-12 19:26:00,
2013-02-12 14:41:00,26.7,23.0,29.87,WNW,287,7.0,14.0,84,0.00,,,0.00,weatherlink.com 1.10,2013-02-12 19:41:00,
2013-02-12 14:56:00,26.7,23.0,29.86,WNW,298,11.0,13.0,84,0.00,,,0.00,weatherlink.com 1.10,2013-02-12 19:56:00,
2013-02-12 15:11:00,26.7,22.0,29.86,WNW,291,10.0,12.0,83,0.00,,,0.00,weatherlink.com 1.10,2013-02-12 20:11:00,
2013-02-12 15:26:00,26.7,23.0,29.85,WNW,289,10.0,13.0,84,0.00,,,0.00,weatherlink.com 1.10,2013-02-12 20:26:00,
2013-02-12 15:41:00,26.7,23.0,29.85,WNW,303,10.0,14.0,85,0.00,,,0.00,weatherlink.com 1.10,2013-02-12 20:41:00,
2013-02-12 15:56:00,26.9,23.0,29.85,WNW,295,7.0,12.0,86,0.00,,,0.00,weatherlink.com 1.10,2013-02-12 20:56:00,
2013-02-12 16:11:00,27.1,23.0,29.84,WNW,290,7.0,11.0,85,0.00,,,0.00,weatherlink.com 1.10,2013-02-12 21:11:00,
2013-02-12 16:26:00,27.3,23.0,29.84,West,275,6.0,10.0,85,0.00,,,0.00,weatherlink.com 1.10,2013-02-12 21:26:00,
2013-02-12 16:41:00,27.5,24.0,29.84,SW,234,8.0,14.0,85,0.00,,,0.00,weatherlink.com 1.10,2013-02-12 21:41:00,
2013-02-12 16:56:00,27.6,24.0,29.84,West,278,5.0,11.0,85,0.00,,,0.00,weatherlink.com 1.10,2013-02-12 21:56:00,
2013-02-12 17:11:00,27.7,24.0,29.84,WSW,254,8.0,17.0,85,0.00,,,0.00,weatherlink.com 1.10,2013-02-12 22:11:00,
2013-02-12 17:26:00,27.7,24.0,29.84,WSW,253,18.0,20.0,84,0.00,,,0.00,weatherlink.com 1.10,2013-02-12 22:26:00,
2013-02-12 17:41:00,27.5,23.0,29.84,WSW,250,13.0,19.0,84,0.00,,,0.00,weatherlink.com 1.10,2013-02-12 22:41:00,
2013-02-12 17:57:00,27.4,23.0,29.85,West,264,6.0,15.0,83,0.00,,,0.00,weatherlink.com 1.10,2013-02-12 22:57:00,
2013-02-12 18:11:00,27.0,23.0,29.86,WSW,249,13.0,20.0,86,0.00,,,0.00,weatherlink.com 1.10,2013-02-12 23:11:00,
2013-02-12 18:26:00,26.6,23.0,29.86,West,263,9.0,17.0,87,0.00,,,0.00,weatherlink.com 1.10,2013-02-12 23:26:00,
2013-02-12 18:41:00,26.4,23.0,29.86,WSW,238,10.0,18.0,86,0.00,,,0.00,weatherlink.com 1.10,2013-02-12 23:41:00,
2013-02-12 18:56:00,26.3,23.0,29.86,SW,222,11.0,17.0,86,0.00,,,0.00,weatherlink.com 1.10,2013-02-12 23:56:00,
2013-02-12 19:12:00,26.3,22.0,29.86,WSW,242,6.0,14.0,85,0.00,,,0.00,weatherlink.com 1.10,2013-02-13 00:12:00,
2013-02-12 19:26:00,26.5,22.0,29.85,SW,229,8.0,16.0,83,0.00,,,0.00,weatherlink.com 1.10,2013-02-13 00:26:00,
2013-02-12 19:41:00,26.6,22.0,29.85,SW,230,8.0,17.0,82,0.00,,,0.00,weatherlink.com 1.10,2013-02-13 00:41:00,
2013-02-12 19:57:00,26.5,21.0,29.85,WSW,257,11.0,15.0,80,0.00,,,0.00,weatherlink.com 1.10,2013-02-13 00:57:00,
2013-02-12 20:12:00,26.5,21.0,29.85,WSW,242,8.0,16.0,80,0.00,,,0.00,weatherlink.com 1.10,2013-02-13 01:12:00,
2013-02-12 20:27:00,26.7,22.0,29.85,SW,227,11.0,15.0,81,0.00,,,0.00,weatherlink.com 1.10,2013-02-13 01:27:00,
2013-02-12 20:42:00,26.8,22.0,29.84,West,271,11.0,16.0,82,0.00,,,0.00,weatherlink.com 1.10,2013-02-13 01:42:00,
2013-02-12 20:57:00,26.9,22.0,29.84,WSW,242,14.0,14.0,82,0.00,,,0.00,weatherlink.com 1.10,2013-02-13 01:57:00,
2013-02-12 21:12:00,26.9,22.0,29.84,West,263,4.0,14.0,81,0.00,,,0.00,weatherlink.com 1.10,2013-02-13 02:12:00,
2013-02-12 21:27:00,26.7,22.0,29.83,SW,228,11.0,16.0,81,0.00,,,0.00,weatherlink.com 1.10,2013-02-13 02:27:00,
2013-02-12 21:42:00,26.8,21.0,29.83,West,269,7.0,13.0,80,0.00,,,0.00,weatherlink.com 1.10,2013-02-13 02:42:00,
2013-02-12 21:57:00,27.0,22.0,29.83,West,265,10.0,13.0,81,0.00,,,0.00,weatherlink.com 1.10,2013-02-13 02:57:00,
2013-02-12 22:12:00,26.8,22.0,29.83,WSW,239,8.0,11.0,82,0.00,,,0.00,weatherlink.com 1.10,2013-02-13 03:12:00,
2013-02-12 22:27:00,26.7,22.0,29.82,SW,223,10.0,13.0,83,0.00,,,0.00,weatherlink.com 1.10,2013-02-13 03:27:00,
2013-02-12 22:42:00,26.8,22.0,29.82,WSW,241,6.0,11.0,83,0.00,,,0.00,weatherlink.com 1.10,2013-02-13 03:42:00,
2013-02-12 22:57:00,27.0,23.0,29.82,WSW,246,10.0,10.0,84,0.00,,,0.00,weatherlink.com 1.10,2013-02-13 03:57:00,
2013-02-12 23:12:00,27.2,23.0,29.81,WSW,238,11.0,13.0,84,0.00,,,0.00,weatherlink.com 1.10,2013-02-13 04:12:00,
2013-02-12 23:27:00,27.3,23.0,29.81,WSW,244,8.0,14.0,84,0.00,,,0.00,weatherlink.com 1.10,2013-02-13 04:27:00,
2013-02-12 23:42:00,27.5,23.0,29.80,WSW,239,7.0,14.0,84,0.00,,,0.00,weatherlink.com 1.10,2013-02-13 04:42:00,
2013-02-12 23:57:00,27.7,24.0,29.80,WSW,244,11.0,13.0,85,0.00,,,0.00,weatherlink.com 1.10,2013-02-13 04:57:00,